Weather History for Burlington, IA

Change the Weather History Date:

Saturday, October 26, 2013

  Actual Average Record
Temperature  
Mean Temperature 43 °F 52 °F  
Max Temperature 55 °F 62 °F 84 °F (1963)
Min Temperature 31 °F 42 °F 18 °F (1942)
Degree Days  
Heating Degree Days 22 13  
Month to date heating degree days 300 249  
Since 1 July heating degree days 352 320  
Cooling Degree Days 0 0  
Month to date cooling degree days 33 19  
Year to date cooling degree days 1115 1201  
Moisture  
Dew Point 27 °F    
Average Humidity 52    
Maximum Humidity 75    
Minimum Humidity 28    
Precipitation  
Precipitation 0.00 in 0.10 in 1.23 in (2004)
Month to date precipitation 0.52 2.64  
Year to date precipitation 28.78 33.41  
Sea Level Pressure  
Sea Level Pressure 30.06 in    
Wind  
Wind Speed 11 mph (WNW)    
Max Wind Speed 21 mph    
Max Gust Speed 30 mph    
Visibility 10 miles    
Events      
T = Trace of Precipitation, MM = Missing Value Source: NWS Daily Summary

Daily Weather History Graph

Daily Weather History Graph

Search for Another Location

Airport:

Trip Planner

Search our weather history database for the weather conditions in past years. The results will help you decide how hot, cold, wet, or windy it might be!

Date:

Astronomy

Oct. 26, 2013 Rise Set
Actual Time 7:28 AM CDT 6:07 PM CDT
Civil Twilight 7:00 AM CDT 6:36 PM CDT
Nautical Twilight 6:28 AM CDT 7:08 PM CDT
Astronomical Twilight 5:56 AM CDT 7:39 PM CDT
Moon No Moon Rise 1:44 PM CDT (10/26)
Length of Visible Light 11h 35m
Length of Day
10h 39m
Waning Gibbous, 53% of the Moon is Illuminated
Oct 26
Waning Gibbous
Oct 26
Last Quarter
Nov 3
New
Nov 9
First Quarter
Nov 17
Full

Hourly Weather History & Observations

Time (CDT) Temp. Windchill Dew Point Humidity Pressure Visibility Wind Dir Wind Speed Gust Speed Precip Events Conditions
12:53 AM 45.0 °F 39.7 °F 28.0 °F 52% 30.09 in 10.0 mi SW 10.4 mph - N/A   Overcast
1:53 AM 46.9 °F - 27.0 °F 46% 30.07 in 10.0 mi SW 13.8 mph - N/A   Overcast
2:53 AM 45.0 °F 38.2 °F 27.0 °F 49% 30.03 in 10.0 mi SW 15.0 mph - N/A   Mostly Cloudy
3:53 AM 44.1 °F 36.8 °F 28.0 °F 53% 30.00 in 10.0 mi SW 16.1 mph - N/A   Clear
4:53 AM 41.0 °F 33.9 °F 28.9 °F 62% 29.98 in 10.0 mi SW 12.7 mph - N/A   Clear
5:53 AM 43.0 °F 35.7 °F 30.9 °F 62% 29.97 in 10.0 mi SW 15.0 mph - N/A   Clear
6:53 AM 43.0 °F 36.8 °F 30.9 °F 62% 29.98 in 10.0 mi WSW 11.5 mph - N/A   Clear
7:53 AM 42.1 °F 36.6 °F 32.0 °F 67% 29.99 in 10.0 mi WSW 9.2 mph - N/A   Clear
8:53 AM 46.9 °F - 34.0 °F 61% 30.00 in 10.0 mi West 10.4 mph - N/A   Partly Cloudy
9:53 AM 50.0 °F - 34.0 °F 54% 30.01 in 10.0 mi NW 13.8 mph 19.6 mph N/A   Clear
10:53 AM 53.1 °F - 32.0 °F 45% 30.02 in 10.0 mi NW 13.8 mph 26.5 mph N/A   Clear
11:53 AM 54.0 °F - 26.1 °F 34% 30.04 in 10.0 mi NW 18.4 mph 26.5 mph N/A   Clear
12:53 PM 53.1 °F - 23.0 °F 31% 30.05 in 10.0 mi NW 18.4 mph 27.6 mph N/A   Clear
1:53 PM 54.0 °F - 23.0 °F 30% 30.05 in 10.0 mi NW 19.6 mph 28.8 mph N/A   Clear
2:53 PM 54.0 °F - 24.1 °F 31% 30.06 in 10.0 mi NNW 17.3 mph 29.9 mph N/A   Clear
3:53 PM 54.0 °F - 21.9 °F 29% 30.07 in 10.0 mi NW 16.1 mph 26.5 mph N/A   Clear
4:53 PM 53.1 °F - 24.1 °F 32% 30.09 in 10.0 mi NNW 13.8 mph 24.2 mph N/A   Clear
5:53 PM 50.0 °F - 25.0 °F 38% 30.09 in 10.0 mi NNW 8.1 mph - N/A   Clear
6:53 PM 46.0 °F 44.8 °F 25.0 °F 44% 30.12 in 8.0 mi NW 3.5 mph - N/A   Clear
7:53 PM 43.0 °F - 25.0 °F 49% 30.13 in 10.0 mi Calm Calm - N/A   Clear
8:53 PM 39.9 °F 37.8 °F 25.0 °F 55% 30.14 in 10.0 mi WNW 3.5 mph - N/A   Clear
9:53 PM 34.0 °F 31.0 °F 26.1 °F 73% 30.15 in 9.0 mi WNW 3.5 mph - N/A   Clear
10:53 PM 37.9 °F 34.4 °F 25.0 °F 60% 30.15 in 9.0 mi WNW 4.6 mph - N/A   Clear
11:53 PM 37.0 °F 33.3 °F 25.0 °F 62% 30.14 in 10.0 mi WNW 4.6 mph - N/A   Clear